Weather History for Ishigakijima, Japan

Change the Weather History Date:

Wednesday, February 6, 2013

  Actual Average Record
Temperature  
Mean Temperature 71 °F -  
Max Temperature 75 °F 69 °F 77 °F (2005)
Min Temperature 68 °F 62 °F 55 °F (1999)
Cooling Degree Days 6    
Growing Degree Days 21 (Base 50)    
Moisture  
Dew Point 65 °F    
Average Humidity 80    
Maximum Humidity 94    
Minimum Humidity 67    
Precipitation  
Precipitation 0.00 in - - ()
Sea Level Pressure  
Sea Level Pressure 30.04 in    
Wind  
Wind Speed 8 mph ()    
Max Wind Speed 18 mph    
Max Gust Speed -    
Visibility 6.5 miles    
Events Rain    
Averages and records for this station are not official NWS values.
T = Trace of Precipitation, MM = Missing Value Source: Averaged Metar Reports

Daily Weather History Graph

Daily Weather History Graph

Search for Another Location

Airport:

Trip Planner

Search our weather history database for the weather conditions in past years. The results will help you decide how hot, cold, wet, or windy it might be!

Date:

Astronomy

Feb. 06, 2013 Rise Set
Actual Time 7:22 AM JST 6:32 PM JST
Civil Twilight 6:59 AM JST 6:55 PM JST
Nautical Twilight 6:32 AM JST 7:23 PM JST
Astronomical Twilight 6:05 AM JST 7:49 PM JST
Moon 3:18 AM JST (2/6) 2:25 PM JST (2/6)
Length of Visible Light 11h 56m
Length of Day
11h 09m
Waning Crescent, 22% of the Moon is Illuminated
Feb 6
Waning Crescent
Feb 10
New
Feb 18
First Quarter
Feb 26
Full
Mar 5
Last Quarter

Hourly Weather History & Observations

Time (JST) Temp. Dew Point Humidity Pressure Visibility Wind Dir Wind Speed Gust Speed Precip Events Conditions
12:00 AM 73 °F 69 °F 82% 30.04 in - South 3.5 mph - -  
3:00 AM 74 °F 69 °F 81% 30.02 in 12 mi SW 4.6 mph - -   Partly Cloudy
6:00 AM 72 °F 69 °F 87% 30.03 in 12 mi NW 2.3 mph - -   Partly Cloudy
6:00 AM 69.8 °F 68.0 °F 94% 30.01 in 6.2 mi WNW 3.5 mph - N/A   Mostly Cloudy
7:00 AM 69.8 °F 68.0 °F 94% 30.04 in 6.2 mi NNW 5.8 mph - N/A Rain Light Rain Showers
7:15 AM 69.8 °F 68.0 °F 94% 30.04 in 1.6 mi North 10.4 mph - N/A Rain Heavy Rain Showers
7:22 AM 69.8 °F 68.0 °F 94% 30.04 in 0.9 mi North 12.7 mph - N/A Rain Heavy Rain Showers
7:34 AM 69.8 °F 68.0 °F 94% 30.04 in 3.7 mi North 10.4 mph - N/A Rain Rain Showers
8:00 AM 68.0 °F 66.2 °F 94% 30.06 in 6.2 mi NNW 9.2 mph - N/A   Mostly Cloudy
9:00 AM 71 °F 68 °F 86% 30.09 in 9 mi NNE 2.3 mph - - Rain Light Rain Showers
9:00 AM 69.8 °F 66.2 °F 88% 30.06 in 6.2 mi NNE 5.8 mph - N/A Rain Light Rain Showers
10:00 AM 71.6 °F 66.2 °F 83% 30.09 in 6.2 mi NNE 12.7 mph - N/A   Mostly Cloudy
11:00 AM 71.6 °F 64.4 °F 78% 30.09 in 6.2 mi North 13.8 mph - N/A   Mostly Cloudy
12:00 PM 72 °F 64 °F 68% 30.09 in 6 mi NNE 16.1 mph - -   Partly Cloudy
12:00 PM 71.6 °F 64.4 °F 78% 30.06 in 6.2 mi NNE 16.1 mph - N/A   Mostly Cloudy
1:00 PM 73.4 °F 62.6 °F 69% 30.06 in 6.2 mi NNE 18.4 mph - N/A   Partly Cloudy
2:00 PM 71.6 °F 62.6 °F 73% 30.01 in 6.2 mi NNE 18.4 mph - N/A   Mostly Cloudy
3:00 PM 71 °F 62 °F 67% 30.02 in 9 mi NE 15.0 mph - -   Partly Cloudy
3:00 PM 69.8 °F 62.6 °F 78% 30.01 in 6.2 mi NE 17.3 mph - N/A   Mostly Cloudy
4:00 PM 69.8 °F 60.8 °F 73% 29.98 in 6.2 mi NE 17.3 mph - N/A   Mostly Cloudy
5:00 PM 71.6 °F 60.8 °F 69% 29.98 in 6.2 mi NE 15.0 mph - N/A   Partly Cloudy
6:00 PM 70 °F 61 °F 67% 30.03 in 9 mi ENE 13.8 mph - -   Scattered Clouds
6:00 PM 69.8 °F 60.8 °F 73% 30.01 in 6.2 mi NE 12.7 mph - N/A   Mostly Cloudy
7:00 PM 68.0 °F 60.8 °F 78% 30.04 in 6.2 mi NE 11.5 mph - N/A   Mostly Cloudy
8:00 PM 68.0 °F 60.8 °F 78% 30.04 in 6.2 mi ENE 13.8 mph - N/A   Mostly Cloudy
9:00 PM 69 °F 61 °F 69% 30.06 in 6 mi NE 11.5 mph - -   Overcast